Location: Gro�wechsungen
(51.4926°N, 10.6901°E)
Time: 07:43:19
(UTC+00:00)

Okean 1-7 Rocket - Pass Details

Date: 18 September 2020
Orbit: 616 x 649 km, 82.5° (Epoch: 22 October)

Event Time Altitude Azimuth Distance (km) Brightness Sun altitude
Rises 20:40:44 0° 346° (NNW) 2,980 7.9 -28.3°
Reaches altitude 10° 20:43:01 10° 343° (NNW) 2,066 7.0 -28.5°
Enters shadow 20:46:42 50° 309° (NW) 831 4.4 -28.9°
